map of STX home
Great Circle Mapper logo
STX - Airport
Location
City:  Christiansted, Virgin Islands, United States
Name:Henry E Rohlsen Airport
ICAO / IATA:TISX / STX
FAA:STX

Details
Type:Airport (Part 139 Class I)
Use:Public/Civil, International (customs landing rights)
Latitude:1742'06"N (17.701556)
Longitude:6448'06"W (-64.801721)
Datum:WGS 1984
Elevation:74 ft (23 m)
Variation:13.56W (WMM2015 magnetic declination)
-0.04 annual change
Runways:1
Longest:10004 × 150 ft (3049 × 45.5 m), paved

Time
Time Zone:UTC-4
Local Time:

Weather
METAR:TISX 261953Z 11011KT 10SM FEW023 28/21 A2997 RMK AO2 SLP148 T02830211
TAF:TISX 262340Z 2700/2724 11006KT P6SM FEW025
FM271300 11013KT P6SM SCT025
FM272300 06008KT P6SM FEW025
AMD NOT SKED

Related Locations
Nearby:
Farthest:BWB: 12212 mi / 19653 km
Barrow Island, WA, AU

Find:

   beyond  
but within

Other Information
Maps:
NOTAMs:
Links:
Sources:

  
flag of United States
flag of Virgin Islands
  

Airport Diagram

Airport diagram for STX

Airport diagram PDF

Sectional Chart

Flight Planning
at skyvector.com

Satellite Image

Google Maps Satellite View

 

Copyright © 2004-2015 Karl L. Swartz. All rights reserved.
The Great Circle Mapper name and logo are trademarks of the Great Circle Mapper.
All other trademarks mentioned herein belong to their respective owners.
Please see credits for attibutions and further copyright information.

  Follow gcmap on Facebook Follow gcmap on Twitter

hCard Microformat

Geo Microformat